Location: Ballingbuur
(53.0000°N, 5.7667°E)
Time: 06:25:07
(UTC+00:00)

USA 81 - Pass Details

Date: 29 November 2020
Orbit: 783 x 791 km, 85.0° (Epoch: 30 November)

Event Time Altitude Azimuth Distance (km) Brightness Sun altitude
Rises 06:18:37 0° 189° (S) 3,260 7.5 -9.5°
Reaches altitude 10° 06:20:57 10° 191° (S) 2,336 6.7 -9.1°
Maximum altitude 06:26:12 78° 278° (W) 808 4.0 -8.4°
Drops below altitude 10° 06:31:30 10° 5° (N) 2,355 6.3 -7.7°
Sets 06:33:53 0° 7° (N) 3,289 7.1 -7.4°
